Regional Weather Roundup
Issued by NWS Grand Forks, ND

Home | Current Version | Previous Version | Graphics & Text | Print | Product List | Glossary On
Versions: 1 2 3 4 5 6 7 8 9 10 11 12 13 14 15 16 17 18 19 20 21 22 23 24 25 26 27 28 29 30 31 32 33 34 35 36 37 38 39 40 41 42 43 44 45 46 47 48 49 50
000
ASUS43 KFGF 070610
RWRFGF
PRAIRIE TO PINES  WEATHER ROUNDUP
NATIONAL WEATHER SERVICE EASTERN NORTH DAKOTA/GRAND FORKS ND
100 AM CDT TUE JUL 07 2015

 **SATELLITE DATA USED TO AUGMENT SKY COVER AT AUTOMATED STATIONS**
 *****  WEATHER ACROSS EASTERN NORTH DAKOTA  *****

CITY           SKY/WX    TMP DP  RH WIND       PRES   REMARKS
GRAND FORKS    CLEAR     47  45  93 W7        30.16R
6HR MIN TEMP:  47; 6HR MAX TEMP:  64;

GRAND FRKS AFB CLEAR     46  44  93 W3        30.17R
GRAND FRKS NWS   N/A     50 N/A N/A MISG        N/A
DEVILS LAKE    CLEAR     54  45  71 SE5       30.17R
6HR MIN TEMP:  52; 6HR MAX TEMP:  64;

FARGO          CLEAR     52  45  77 NW3       30.16S
WAHPETON ARPT  CLEAR     48  43  81 NW5       30.16S
$$

 ***** WEATHER ACROSS CENTRAL AND WESTERN NORTH DAKOTA  *****

CITY           SKY/WX    TMP DP  RH WIND       PRES   REMARKS
BISMARCK       CLEAR     51  49  92 E3        30.20R
6HR MIN TEMP:  51; 6HR MAX TEMP:  69;

MINOT          CLEAR     52  46  80 SW3       30.17R
6HR MIN TEMP:  50; 6HR MAX TEMP:  67;

JAMESTOWN      CLEAR     52  48  86 E5        30.19R
6HR MIN TEMP:  52; 6HR MAX TEMP:  66;

MINOT AFB      CLEAR     47  47  99 S3        30.16R
GARRISON         N/A     51  48  89 CALM      30.18R
WILLISTON      CLEAR     55  45  68 CALM      30.17S
6HR MIN TEMP:  51; 6HR MAX TEMP:  72;

DICKINSON      CLEAR     52  49  89 SE7       30.18S FOG
6HR MIN TEMP:  51; 6HR MAX TEMP:  69;

HETTINGER      CLEAR     55  51  86 E9        30.21R FOG
6HR MIN TEMP:  54; 6HR MAX TEMP:  72;

$$

 *****  OTHER AIRPORT OBSERVATIONS IN OUR AREA  *****

CITY           SKY/WX    TMP DP  RH WIND       PRES   REMARKS
WALHALLA       FAIR      48  48 100 MISG      30.16R
GRAFTON AIRPOR FAIR      52  52 100 W5        30.17R
VALLEY CITY AR FAIR      50  48  93 CALM      30.19S
CANDO          FAIR      46  45  93 SW3       30.18R
CAVALIER APRT  FAIR      48  48 100 CALM      30.16R
GWINNER        FAIR      54  48  82 N3        30.19R
ROLLA          FAIR      46  46 100 CALM      30.18S
 ***** THE ABOVE OBSERVATIONS ARE NON NWS ARE NOT QUALITY
       CONTROLLED AND MAY MIS-REPORT RAIN FOR SNOW...
$$

  *****  WEATHER ACROSS NORTHERN MINNESOTA  *****

CITY           SKY/WX    TMP DP  RH WIND       PRES   REMARKS
FLAG ISLAND    CLEAR     55  45  67 W12       30.10R
WARROAD        CLEAR     50  45  81 W6        30.13R
ROSEAU         CLEAR     52  45  76 W5        30.13S
HALLOCK        CLEAR     48  46  93 CALM      30.15R
THF RVR FALLS  CLEAR     48  46  93 CALM      30.16R
6HR MIN TEMP:  48; 6HR MAX TEMP:  61;

BAUDETTE       CLEAR     48  45  89 SW5       30.11R
6HR MIN TEMP:  47; 6HR MAX TEMP:  59;

WASKISH        CLOUDY    55  48  76 NW3       30.12S
CROOKSTON      CLEAR     50  46  87 W3        30.17R
STEPHEN NDAWN    N/A     48  46  93 W3          N/A
GREENBUSH NDAW   N/A     46  46 100 W3          N/A
$$
  *****  WEATHER ACROSS CENTRAL AND WEST MINNESOTA  *****

CITY           SKY/WX    TMP DP  RH WIND       PRES   REMARKS
FOSSTON        CLEAR     43  39  87 CALM      30.16S
BEMIDJI        CLEAR     46  45  93 W3        30.13S
PARK RAPIDS    CLEAR     52  46  80 NW5       30.12F
6HR MIN TEMP:  51; 6HR MAX TEMP:  62;

ELBOW LAKE     FAIR      53  47  81 N6        30.14S
WADENA         PTCLDY    46  43  87 NW7       30.13R
DETROIT LAKES  CLEAR     50  45  81 NW5       30.16S
MOORHEAD       CLEAR     48  45  87 CALM      30.17R
FERGUS FALLS   CLEAR     48  45  87 N6        30.16R
MORRIS MN      FAIR      52  48  87 NW7       30.13S
STAPLES        CLEAR     48  45  87 NW6       30.12R
$$
  *****  WEATHER ELSEWHERE ACROSS MINNESOTA  *****

CITY           SKY/WX    TMP DP  RH WIND       PRES   REMARKS
DULUTH         CLOUDY    55  44  66 N8        30.05R
6HR MIN TEMP:  55; 6HR MAX TEMP:  63;

INTRNTL FALLS  CLOUDY    46  44  93 CALM      30.10R
6HR MIN TEMP:  46; 6HR MAX TEMP:  58;

ELY            CLOUDY    52  45  76 NW6       30.06S
CLOQUET        CLOUDY    54  43  66 NW6       30.06S
WHEATON        CLEAR     50  46  87 NW5       30.17S
BRAINERD       MOCLDY    55  48  77 N8        30.10R
6HR MIN TEMP:  55; 6HR MAX TEMP:  62;

HIBBING        CLOUDY    54  42  64 N10       30.08S
6HR MIN TEMP:  54; 6HR MAX TEMP:  60;

ALEXANDRIA     CLEAR     53  45  74 N7        30.14R
6HR MIN TEMP:  53; 6HR MAX TEMP:  63;

SAINT CLOUD    CLEAR     53  47  79 NW3       30.09R
6HR MIN TEMP:  53; 6HR MAX TEMP:  66;

MINNEAPOLIS    PTCLDY    59  48  67 N12       30.05S
6HR MIN TEMP:  58; 6HR MAX TEMP:  72;

$$

  *****  WEATHER ACROSS SOUTH DAKOTA  *****

CITY           SKY/WX    TMP DP  RH WIND       PRES   REMARKS
SIOUX FALLS    CLEAR     55  52  89 N5        30.14R
6HR MIN TEMP:  55; 6HR MAX TEMP:  70;

BROOKINGS      CLEAR     54  48  82 N6        30.16S
WATERTOWN      CLEAR     52  50  93 N3        30.16S
6HR MIN TEMP:  52; 6HR MAX TEMP:  68;

HURON          CLEAR     57  54  89 NE5       30.15R
6HR MIN TEMP:  57; 6HR MAX TEMP:  71;

SISSETON         N/A     50  47  89 NW7       30.16R
ABERDEEN       CLEAR     54  51  90 CALM      30.17S
6HR MIN TEMP:  54; 6HR MAX TEMP:  71;

MITCHELL       CLEAR     59  57  93 N3        30.16R FOG
PIERRE         CLEAR     56  54  93 E6        30.16S
6HR MIN TEMP:  56; 6HR MAX TEMP:  73; 6HR PCP: TRACE;

MOBRIDGE       CLEAR     59  55  87 S5        30.18R
RAPID CITY     MOCLDY    60  57  89 SE3       30.20F
6HR MIN TEMP:  59; 6HR MAX TEMP:  69;

$$

  *****  SOME WEATHER IN NEARBY STATES *****

CITY           SKY/WX    TMP DP  RH WIND       PRES   REMARKS
GLASGOW MT     CLEAR     57  47  69 E10       30.11S
6HR MIN TEMP:  57; 6HR MAX TEMP:  74;

GREAT FALLS MT CLEAR     61  49  64 E3        30.08F
6HR MIN TEMP:  59; 6HR MAX TEMP:  74;

CHEYENNE WY    LGT RAIN  54  53  97 SE9       30.32S FOG
6HR MIN TEMP:  54; 6HR MAX TEMP:  57; 6HR PCP:  0.02;

SCOTTSBLUFF NE CLOUDY    64  57  78 SE5       30.24F HAZE
6HR MIN TEMP:  64; 6HR MAX TEMP:  68; 6HR PCP: TRACE;

OMAHA NE       PTCLDY    64  56  75 N13       30.07R
6HR MIN TEMP:  64; 6HR MAX TEMP:  73;

DES MOINES IA  CLOUDY    66  59  78 N8        30.00R HAZE
6HR MIN TEMP:  66; 6HR MAX TEMP:  73;

DAVENPORT IA   CLOUDY    65  61  87 N15       29.89R
6HR MIN TEMP:  65; 6HR MAX TEMP:  72; 6HR PCP:  2.07;

CHICAGO IL     CLOUDY    71  69  93 W7        29.83F
6HR MIN TEMP:  70; 6HR MAX TEMP:  79; 6HR PCP:  0.44;

EAU CLAIRE WI  PTCLDY    59  52  77 NW8       29.99R
6HR MIN TEMP:  59; 6HR MAX TEMP:  65;

LA CROSSE WI   CLOUDY    59  56  89 NW6       29.96S FOG
6HR MIN TEMP:  59; 6HR MAX TEMP:  68;

$$

  *****  SOME NATIONAL WEATHER *****

CITY           SKY/WX    TMP DP  RH WIND       PRES   REMARKS
LA GUARDIA NY  CLOUDY    75  70  84 S6        30.07F
6HR MIN TEMP:  75; 6HR MAX TEMP:  77;

RALEIGH NC     PTCLDY    74  66  76 SW6       30.08F
6HR MIN TEMP:  73; 6HR MAX TEMP:  84;

ATLANTA GA     CLEAR     73  68  84 W5        30.14F
6HR MIN TEMP:  73; 6HR MAX TEMP:  81;

NEW ORLEANS LA MOCLDY    82  76  81 S5        30.11R
6HR MIN TEMP:  82; 6HR MAX TEMP:  88;

OKLAHOMA CITY  TSTM      71  70  96 N9        30.00F
6HR MIN TEMP:  71; 6HR MAX TEMP:  87; 6HR PCP:  0.49;

ALBUQUERQUE NM CLOUDY    69  57  65 E26G36    30.18R
6HR MIN TEMP:  69; 6HR MAX TEMP:  75; 6HR PCP: TRACE;

SALT LAKE CITY MOCLDY    74  55  51 SE10      30.05F
6HR MIN TEMP:  74; 6HR MAX TEMP:  82;

LOS ANGELES CA CLOUDY    64  60  87 SW3       30.02R
6HR MIN TEMP:  63; 6HR MAX TEMP:  67;




USA.gov is the U.S. government's official web portal to all federal, state and local government web resources and services.